490  
ASUS43 KFSD 290110  
RWRSD  
 
WEATHER ROUNDUP FOR SOUTH DAKOTA  
NATIONAL WEATHER SERVICE SIOUX FALLS SD  
800 PM CDT TUE MAR 28 2017  
 
NOTE: "FAIR" INDICATES FEW OR NO CLOUDS BELOW 12,000 FEET WITH NO  
SIGNIFICANT WEATHER AND/OR S TO VISIBILITY
.  
 
 
SDZ001>005-009-010-012>017-290200-  
NORTHWEST AND NORTH CENTRAL SOUTH DAKOTA  
 
CITY SKY/WX TMP DP RH WIND PRES REMARKS
 
BUFFALO N/A 48 45 89 SE14 30.02R  
FAITH N/A 45 45 100 MISG 30.13R  
MOBRIDGE CLOUDY 53 38 56 E7 30.11R  

 
 
SDZ012>016-024>037-041>051-057-063-072>074-290200-  
SOUTHWEST AND SOUTH CENTRAL SOUTH DAKOTA  
 
CITY SKY/WX TMP DP RH WIND PRES REMARKS
 
RAPID CTY ARPT LGT RAIN 44 42 93 SE5 30.10R  
PIERRE CLOUDY 50 44 80 W7 30.12R  
CUSTER LGT RAIN 38 35 89 E3 30.08R  
ELLSWORTH AFB LGT RAIN 45 45 100 CALM 30.09  
PHILIP LGT RAIN 45 45 100 E10 30.14R FOG  
PINE RIDGE LGT RAIN 42 40 92 E5 30.10R  
SPEARFISH FAIR 46 37 71 CALM 30.09R  
WINNER LGT RAIN 48 41 76 S13 30.14R  

 
 
SDZ004>011-016>023-039-040-290200-  
NORTHEAST SOUTH DAKOTA  
 
CITY SKY/WX TMP DP RH WIND PRES REMARKS
 
ABERDEEN CLOUDY 52 32 46 E8 30.15R  
WATERTOWN CLOUDY 51 37 58 E3 30.15R  
BROOKINGS PTCLDY 54 37 52 E6 30.14R  
SISSETON N/A 53 40 61 CALM 30.15R  

 
 
SDZ017-020-022-023-036>040-048>070-290200-  
SOUTHEAST SOUTH DAKOTA  
 
CITY SKY/WX TMP DP RH WIND PRES REMARKS
 
SIOUX FALLS CLOUDY 53 38 56 E9 30.13R  
HURON CLOUDY 54 39 57 E5 30.13R  
CHAMBERLAIN CLOUDY 53 42 66 SW3 30.14R  
MITCHELL CLOUDY 54 37 52 SE6 30.13R  
YANKTON CLOUDY 54 36 50 NE8 30.10R  

 
 
ABBREVIATIONS USED IN REMARKS  
TC - TEMPERATURE IN CELSIUS  
WCI - WIND CHILL INDEX  
HX - HEAT INDEX  
VSB - VISIBILITY  
 
 
 
CLICK HERE TO GO TO PREVIOUS BULLETINS.

The Nexlab SD Page Main Text Page